Probability
0 0 0 0 0 0 0 0 0 0 0 0 0 0 0 0 0 0 0 0 0 0 0 0 0 3 0 0 0 0 0 0 0 0 0 0 0 0 0 3 0 0 0
0 0 0 0 0 0 0 0 0 0 0 0 0 0 0 0 0 0 0 0 0 0 0 3 0 3 0 0 0 0 0 0 0 0 0 0 0 0 0 3 0 0 0
0 0 0 0 0 0 0 0 0 0 0 0 0 0 0 0 0 0 0 0 0 0 0 3 3 3 3 0 0 0 0 0 0 0 0 0 0 0 0 0 0 0 0
0 0 0 0 0 0 0 0 0 0 0 0 0 0 0 0 0 0 0 0 0 0 0 0 3 3 3 0 0 0 0 0 0 0 0 0 0 0 0 0 0 0 0
0 0 0 0 0 0 0 0 0 0 0 0 0 0 0 0 0 0 0 0 0 0 0 0 0 0 0 0 0 0 0 0 0 0 0 0 0 0 0 0 0 0 0
0 0 0 0 0 0 0 0 0 0 0 0 0 0 0 0 0 0 0 0 0 0 0 0 0 0 0 0 0 0 0 0 0 0 0 0 0 0 0 0 0 0 0
0 0 0 0 0 0 0 0 0 0 0 0 0 0 0 0 0 0 0 0 0 0 0 0 0 0 0 0 0 0 0 0 0 0 0 0 0 0 0 0 0 0 0
0 0 0 0 0 0 0 0 0 0 0 0 0 0 0 0 0 0 0 0 0 0 0 0 0 0 0 0 0 0 0 0 0 0 0 0 0 0 0 0 0 0 0
0 0 0 0 0 0 0 0 0 0 0 0 0 0 0 0 0 0 0 0 0 0 0 0 0 0 0 0 0 0 0 0 0 0 0 0 0 0 0 0 0 0 0
0 0 0 0 0 0 0 0 0 0 0 0 0 0 0 0 0 0 0 0 0 0 0 0 0 0 0 0 0 0 0 0 0 0 0 0 0 0 0 0 0 0 0
0 0 0 0 0 0 0 0 0 0 0 0 0 0 0 0 0 0 0 0 0 0 0 0 0 0 0 0 0 0 0 0 0 0 0 0 0 0 0 0 0 0 0
0 0 0 0 0 0 0 0 0 0 0 0 0 0 0 0 0 0 0 0 0 0 0 0 0 0 0 0 0 0 0 0 0 0 0 0 0 0 0 0 0 0 0
0 0 0 0 0 0 0 0 0 0 0 0 0 0 0 0 0 0 0 0 0 0 0 0 0 0 0 0 0 0 0 0 0 0 0 0 0 0 0 0 0 0 0
0 0 0 0 0 0 0 0 0 0 0 0 0 0 0 0 0 0 0 0 0 0 0 0 0 0 0 0 0 0 0 0 0 0 0 0 0 0 0 0 0 0 0
0 0 0 0 0 0 0 0 0 0 0 0 0 0 0 0 0 0 0 0 0 0 0 0 0 0 0 0 0 0 0 0 0 0 0 0 0 0 0 0 0 0 0
0 0 0 0 0 0 0 0 0 0 0 0 0 0 0 0 0 0 0 0 0 0 0 0 0 0 0 0 0 0 0 0 0 0 0 0 0 0 0 0 0 0 0
0 0 0 0 0 0 0 0 0 0 0 0 0 0 0 0 0 0 0 0 0 0 0 0 0 0 0 0 0 0 0 0 0 0 0 0 0 0 0 0 0 0 0
0 0 0 0 0 0 0 0 0 0 0 0 0 0 0 0 0 0 0 0 0 0 0 0 0 0 0 0 0 0 0 0 0 0 0 0 0 0 0 0 0 0 0
0 0 0 0 0 0 0 0 0 0 0 0 0 0 0 0 0 0 0 0 0 0 0 0 0 0 0 0 0 0 0 0 0 0 0 0 0 0 0 0 0 0 0
0 0 0 0 0 0 0 0 0 0 0 0 0 0 0 0 0 0 0 0 0 0 0 0 0 0 0 0 0 0 0 0 0 0 0 0 0 0 0 0 0 0 0
0 0 0 0 0 0 0 0 0 0 0 0 0 0 0 0 0 0 0 0 0 0 0 0 0 0 0 0 0 0 0 0 0 0 0 0 0 0 0 0 0 0 0
0 0 0 0 0 0 0 0 0 0 0 0 0 0 0 0 0 0 0 0 0 0 0 0 0 0 0 0 0 0 0 0 0 0 0 0 0 0 0 0 0 0 0
0 0 0 0 0 0 0 0 0 0 0 0 0 0 0 0 0 0 0 0 0 0 0 0 0 0 0 0 0 0 0 0 0 0 0 0 0 0 0 0 0 0 0
0 0 0 0 0 0 0 0 0 0 0 0 0 0 0 0 0 0 0 0 0 0 0 0 0 0 0 0 0 0 0 0 0 0 0 0 0 0 0 0 0 0 0
0 0 0 0 0 0 0 0 0 0 0 0 0 0 0 0 0 0 0 0 0 0 0 0 0 0 0 0 0 0 0 0 0 0 0 0 0 0 0 0 0 0 0
0 0 0 0 0 0 0 0 0 0 0 0 0 0 0 0 0 0 0 0 0 0 0 0 0 0 0 0 0 0 0 0 0 0 0 0 0 0 0 0 0 0 0
Height
5786 5787 5787 5787 5788 5788 5788 5788 5788 5788 5787 5787 5787 5787 5787 5787 5787 5787 5787 5787 5787 5786 5785 5784 5783 5782 5782 5781 5780 5779 5778 5777 5776 5775 5775 5774 5773 5772 5771 5771 5770 5769 5768
5779 5779 5779 5780 5780 5780 5780 5780 5780 5780 5780 5780 5780 5780 5779 5779 5779 5779 5779 5779 5778 5778 5777 5776 5775 5774 5773 5772 5771 5770 5769 5768 5767 5766 5765 5764 5763 5762 5762 5761 5760 5759 5758
5770 5771 5771 5771 5772 5772 5772 5772 5772 5772 5772 5771 5771 5771 5771 5771 5771 5771 5771 5770 5770 5769 5768 5767 5766 5765 5764 5762 5761 5760 5759 5758 5757 5756 5755 5754 5753 5752 5751 5750 5750 5749 5748
5762 5762 5762 5763 5763 5763 5763 5763 5763 5763 5763 5763 5763 5763 5763 5762 5762 5762 5762 5761 5760 5759 5759 5757 5756 5755 5754 5753 5751 5750 5749 5748 5747 5746 5745 5744 5742 5741 5740 5740 5739 5738 5737
5752 5753 5753 5753 5754 5754 5754 5754 5755 5754 5754 5754 5754 5754 5753 5753 5753 5753 5752 5751 5751 5750 5749 5748 5747 5746 5744 5743 5741 5740 5739 5737 5736 5735 5734 5732 5731 5730 5729 5728 5727 5726 5725
5743 5743 5743 5743 5744 5744 5745 5745 5745 5745 5745 5745 5745 5744 5744 5744 5744 5743 5742 5742 5741 5740 5739 5738 5737 5735 5734 5732 5731 5730 5728 5727 5725 5723 5722 5720 5719 5718 5717 5716 5715 5714 5713
5734 5734 5734 5734 5734 5734 5734 5735 5735 5735 5735 5735 5735 5735 5734 5734 5734 5733 5733 5732 5731 5730 5729 5727 5726 5725 5723 5722 5720 5719 5717 5715 5713 5712 5710 5708 5707 5705 5704 5704 5703 5702 5701
5724 5724 5724 5724 5724 5724 5724 5724 5724 5725 5725 5725 5725 5725 5725 5725 5723 5723 5722 5721 5720 5719 5718 5717 5715 5714 5712 5711 5709 5708 5706 5704 5702 5700 5698 5696 5694 5693 5692 5691 5690 5689 5688
5713 5714 5714 5714 5714 5714 5714 5714 5714 5714 5714 5714 5714 5714 5714 5714 5713 5713 5712 5710 5709 5708 5707 5705 5704 5702 5701 5699 5698 5696 5694 5692 5690 5688 5686 5684 5682 5680 5679 5678 5677 5676 5675
5702 5703 5704 5704 5703 5703 5703 5703 5703 5703 5703 5703 5703 5703 5703 5702 5702 5702 5701 5699 5698 5697 5696 5694 5693 5691 5689 5688 5686 5684 5682 5680 5678 5676 5674 5672 5670 5668 5666 5665 5664 5663 5662
5692 5692 5692 5692 5692 5692 5692 5692 5692 5692 5692 5692 5692 5692 5691 5691 5690 5690 5690 5689 5687 5686 5684 5683 5681 5679 5677 5676 5674 5672 5670 5668 5666 5664 5662 5659 5657 5655 5653 5652 5651 5649 5648
5681 5681 5681 5681 5681 5681 5681 5681 5681 5681 5681 5681 5681 5680 5680 5680 5679 5678 5678 5677 5676 5675 5673 5671 5669 5667 5666 5664 5662 5660 5658 5656 5654 5652 5649 5647 5645 5642 5640 5639 5637 5636 5634
5669 5669 5669 5669 5669 5670 5670 5670 5670 5670 5670 5669 5669 5669 5668 5668 5667 5667 5666 5666 5665 5664 5662 5660 5657 5655 5654 5652 5650 5648 5646 5644 5641 5639 5637 5634 5632 5630 5627 5626 5623 5622 5620
5658 5658 5658 5658 5658 5658 5658 5658 5658 5658 5658 5658 5658 5657 5657 5656 5656 5655 5654 5654 5653 5653 5651 5649 5646 5643 5641 5640 5638 5636 5633 5631 5629 5626 5624 5621 5619 5616 5614 5612 5610 5608 5606
5646 5646 5646 5647 5647 5647 5647 5647 5646 5646 5647 5647 5646 5646 5645 5645 5644 5643 5642 5641 5641 5641 5640 5637 5634 5631 5629 5628 5625 5623 5621 5619 5616 5614 5611 5609 5606 5603 5600 5598 5596 5593 5591
5635 5635 5635 5635 5635 5635 5635 5635 5635 5635 5635 5635 5635 5635 5634 5633 5632 5631 5630 5629 5628 5628 5627 5626 5623 5620 5618 5616 5613 5611 5609 5607 5604 5601 5598 5595 5593 5590 5587 5584 5581 5579 5577
5624 5624 5624 5624 5624 5624 5624 5624 5624 5624 5624 5624 5624 5623 5623 5622 5621 5620 5619 5618 5617 5615 5614 5613 5611 5608 5606 5604 5602 5599 5597 5594 5592 5588 5585 5583 5580 5577 5574 5571 5568 5565 5563
5614 5614 5613 5613 5613 5613 5613 5613 5613 5613 5613 5613 5613 5612 5612 5611 5610 5608 5607 5606 5605 5603 5602 5601 5599 5597 5594 5592 5590 5588 5585 5582 5580 5577 5573 5570 5567 5565 5562 5559 5556 5552 5549
5604 5603 5603 5603 5602 5602 5602 5602 5602 5602 5602 5602 5601 5601 5600 5600 5599 5597 5596 5594 5593 5591 5590 5589 5587 5585 5583 5580 5578 5576 5574 5571 5568 5565 5562 5559 5556 5553 5549 5546 5543 5540 5537
5593 5593 5593 5592 5592 5591 5591 5592 5591 5591 5591 5591 5590 5590 5589 5588 5588 5586 5585 5583 5582 5580 5578 5577 5576 5574 5572 5569 5567 5565 5563 5560 5557 5554 5551 5547 5545 5541 5538 5535 5532 5528 5525
5583 5583 5582 5582 5581 5581 5581 5581 5581 5581 5580 5580 5579 5579 5578 5577 5576 5575 5574 5572 5570 5569 5567 5566 5565 5563 5561 5559 5556 5554 5552 5549 5546 5543 5540 5536 5533 5530 5526 5523 5520 5517 5514
5573 5572 5572 5572 5571 5571 5571 5570 5570 5570 5569 5569 5568 5568 5567 5566 5565 5564 5562 5561 5560 5558 5557 5556 5554 5553 5550 5548 5546 5543 5540 5539 5536 5533 5529 5526 5522 5519 5516 5513 5510 5507 5504
5563 5563 5562 5562 5562 5561 5561 5560 5560 5560 5559 5558 5558 5557 5556 5555 5554 5553 5552 5550 5549 5547 5547 5545 5544 5542 5540 5538 5535 5533 5529 5527 5524 5521 5518 5515 5511 5509 5506 5503 5500 5497 5494
5553 5553 5552 5552 5552 5551 5550 5550 5550 5549 5549 5548 5547 5547 5546 5545 5544 5542 5541 5540 5539 5538 5536 5535 5534 5531 5529 5526 5524 5521 5518 5516 5513 5510 5507 5505 5502 5499 5496 5493 5490 5487 5485
5543 5543 5542 5542 5542 5541 5540 5540 5539 5539 5539 5538 5537 5536 5536 5535 5533 5532 5531 5530 5529 5528 5525 5524 5522 5520 5518 5516 5513 5511 5508 5505 5503 5500 5497 5495 5492 5490 5487 5484 5481 5478 5475
5533 5533 5532 5532 5532 5531 5531 5530 5529 5529 5529 5529 5528 5527 5526 5524 5523 5521 5520 5520 5519 5518 5516 5514 5512 5510 5508 5505 5502 5500 5498 5495 5493 5491 5488 5486 5483 5481 5479 5476 5473 5469 5466
Wind_Speed
35 34 34 35 35 34 34 34 34 34 34 34 34 34 34 34 34 34 35 35 35 35 36 36 36 37 37 37 37 37 38 38 38 38 38 38 39 39 39 40 40 40 39
37 37 36 36 36 36 36 36 35 35 35 36 35 35 35 35 35 35 36 37 37 38 38 38 38 38 38 38 39 39 40 40 40 40 40 40 40 41 41 41 41 41 41
38 38 38 38 38 38 37 37 38 38 37 37 37 37 37 37 37 38 37 37 38 39 40 40 40 41 40 40 41 41 41 42 42 42 42 42 42 42 43 43 43 43 43
40 40 40 39 39 39 39 38 39 39 39 38 38 38 38 39 39 39 39 39 40 40 40 41 42 42 41 42 42 42 43 43 43 43 43 44 43 43 44 44 44 44 44
40 41 42 42 41 41 40 40 41 41 40 40 40 40 40 40 40 40 40 40 41 41 41 41 41 42 42 43 43 43 43 44 44 45 46 46 46 46 46 46 45 46 46
41 42 42 42 42 42 41 41 42 42 42 42 41 41 41 41 41 41 41 41 42 42 42 42 42 42 42 43 43 44 44 45 46 47 47 47 48 48 48 48 47 47 47
43 43 42 41 42 42 42 42 43 43 43 42 42 42 43 42 42 42 42 42 42 42 43 44 44 44 44 44 45 45 46 46 46 47 48 49 49 50 50 50 50 49 49
43 43 43 42 42 42 42 42 43 44 44 44 44 43 43 43 43 43 43 43 43 44 44 45 45 45 45 46 47 47 47 47 48 48 49 50 51 51 51 52 51 51 50
45 44 43 43 43 42 42 43 43 43 43 43 44 44 43 43 44 44 45 46 46 46 46 46 46 47 47 48 48 49 49 49 49 49 49 49 50 50 51 51 51 50 50
45 45 44 44 44 44 44 44 43 43 43 43 43 44 44 44 45 45 45 46 46 46 46 46 46 47 47 48 49 49 49 49 49 49 49 49 49 49 50 50 50 50 50
46 46 46 46 46 46 45 45 45 44 44 43 44 44 44 44 44 45 44 44 44 45 45 45 45 46 46 47 47 48 48 47 48 48 48 49 49 49 49 50 50 50 51
47 47 47 47 46 46 45 45 45 45 45 45 44 44 44 44 44 44 43 43 43 44 44 45 45 45 46 46 47 47 48 49 49 49 49 49 49 49 49 50 50 50 51
46 46 46 46 46 46 46 45 45 45 46 46 45 45 45 44 44 44 44 44 45 44 45 46 46 47 47 47 48 48 49 49 49 48 48 49 49 50 50 50 50 51 51
43 44 44 44 45 45 45 45 45 46 46 47 46 45 45 46 46 45 45 45 45 44 45 45 46 47 47 47 47 48 48 48 48 48 48 48 49 49 50 50 51 51 51
42 42 42 43 43 44 44 44 45 45 46 46 46 46 46 45 45 45 45 45 45 44 44 44 45 46 47 47 47 47 47 47 48 48 48 49 49 50 50 51 51 52 52
40 41 41 41 41 42 42 43 43 43 43 44 44 44 44 44 44 44 44 44 44 45 44 43 44 44 45 46 46 46 46 46 47 48 48 49 49 49 49 50 50 51 51
39 39 40 41 41 42 42 42 42 41 42 42 42 42 42 42 42 43 43 43 44 44 44 44 44 44 45 46 46 45 46 46 46 46 47 47 47 47 47 47 48 48 49
38 38 39 40 41 41 41 42 42 42 42 42 41 41 41 42 42 42 43 43 44 44 45 44 44 44 45 45 45 45 45 45 44 44 45 44 45 45 46 46 47 47 47
38 39 40 40 40 40 41 41 42 42 42 41 42 42 42 42 41 42 42 43 44 44 45 44 44 44 44 44 43 43 43 43 43 43 43 43 43 44 45 45 45 45 45
38 39 39 39 40 40 40 40 40 40 41 42 42 41 41 41 41 42 42 42 43 43 42 42 42 42 42 41 42 41 42 42 43 43 43 43 44 44 43 43 43 42 41
37 37 37 38 39 39 39 39 39 39 40 40 41 41 41 41 41 41 41 41 41 40 40 40 40 40 40 40 41 41 42 42 43 43 43 44 43 42 42 41 40 39 38
36 36 36 36 37 37 37 37 38 38 38 39 40 40 40 41 40 39 39 39 39 39 38 39 39 38 39 40 40 41 42 42 42 42 42 41 41 40 40 39 38 37 37
35 35 34 35 35 35 36 36 37 37 37 38 39 39 39 39 39 39 38 38 38 38 38 39 39 39 39 40 40 41 41 41 41 41 40 38 38 37 37 37 37 36 36
35 35 35 35 35 35 36 36 37 37 37 37 38 37 38 38 38 38 38 37 37 37 37 37 38 38 38 39 40 39 39 40 40 39 38 37 36 36 36 36 36 36 36
35 35 35 35 35 35 35 36 36 36 35 35 35 36 36 37 37 37 37 36 36 36 36 36 36 37 38 38 38 38 38 38 37 36 36 35 35 34 34 34 34 34 34
34 35 35 35 35 35 35 35 35 35 34 33 33 34 34 35 35 35 35 34 34 35 35 36 36 36 36 36 37 37 36 36 35 33 33 33 32 32 31 32 33 33 33
Wind_Direction
263 265 267 268 270 271 271 272 272 273 273 272 271 272 272 271 272 273 274 275 275 276 278 278 278 279 281 282 281 281 281 280 280 280 280 280 280 279 279 280 280 280 280
265 265 268 268 270 270 271 272 272 273 273 273 272 272 273 272 272 274 275 276 276 278 279 278 278 279 281 281 281 280 280 280 279 279 279 280 281 281 281 281 281 280 279
264 266 267 268 269 270 270 271 272 273 273 274 273 273 273 273 273 274 275 276 277 278 278 278 278 280 280 280 280 280 280 280 280 280 279 280 281 281 280 280 280 280 279
266 267 267 268 269 270 271 271 272 272 273 274 274 273 273 274 275 275 275 275 277 277 277 278 278 279 279 280 281 281 280 280 280 280 280 280 280 280 280 280 280 279 279
267 268 267 267 269 271 271 271 271 272 273 273 274 273 274 275 275 276 276 276 276 277 277 277 278 279 280 280 281 281 281 281 280 279 279 280 280 279 279 279 279 279 278
267 268 269 268 269 270 271 271 272 272 272 272 272 273 274 275 275 276 276 276 277 277 277 278 279 279 280 280 280 280 282 283 282 281 280 279 279 279 278 278 278 278 278
267 268 269 269 269 269 269 270 271 271 271 272 272 273 274 275 274 275 275 276 278 278 277 278 280 279 279 280 280 281 283 283 283 282 282 281 280 279 279 279 278 278 278
267 268 269 270 270 270 270 271 271 271 271 272 273 273 273 274 275 274 275 277 277 277 277 278 279 280 279 280 281 282 282 283 284 284 284 283 281 280 279 279 279 278 277
266 267 268 269 269 270 270 271 271 271 271 272 272 273 273 274 274 275 275 276 277 276 278 279 279 280 280 281 282 282 283 283 284 285 285 284 283 281 280 280 279 278 277
267 267 268 268 268 268 270 270 270 271 271 272 272 274 274 275 275 276 276 277 277 277 278 279 280 280 281 282 282 282 282 283 284 285 284 284 283 282 281 280 279 278 278
267 268 267 268 269 268 269 270 269 270 271 272 273 274 274 275 276 276 276 276 276 277 279 280 280 281 282 283 283 282 282 283 284 285 284 283 283 283 282 281 279 278 278
268 268 268 268 268 268 268 269 269 269 270 271 272 273 274 275 276 277 277 277 277 278 279 280 280 281 282 283 283 283 283 284 285 285 285 284 284 283 283 282 280 278 277
268 268 268 269 268 268 269 269 269 270 270 271 272 273 275 276 276 277 277 278 278 278 279 279 280 281 282 283 283 284 284 285 285 286 286 285 284 283 283 282 282 280 279
268 268 268 268 268 268 268 268 269 269 270 271 272 274 275 276 276 277 278 278 279 279 280 280 280 281 282 283 284 284 285 285 285 286 286 286 286 284 284 283 282 281 280
268 267 268 268 268 268 268 269 269 269 270 271 273 274 275 276 277 277 278 278 279 279 279 280 281 281 282 283 284 285 285 285 286 286 286 287 286 287 285 284 283 282 280
268 267 267 267 267 268 269 269 269 269 269 270 271 273 275 276 277 277 278 278 279 279 280 280 280 281 283 285 286 286 286 287 287 287 287 288 287 287 287 286 284 283 282
268 267 267 267 267 267 268 269 269 270 270 270 271 273 274 276 277 278 278 279 279 279 280 281 281 281 283 285 285 286 287 288 288 288 288 288 288 288 287 287 286 285 284
268 268 268 268 268 267 268 269 269 270 270 270 271 273 274 275 277 279 279 279 280 280 281 281 282 283 284 285 286 287 287 288 288 289 289 289 289 289 288 288 287 287 286
269 269 269 269 269 269 269 270 269 270 270 271 272 273 274 276 277 279 280 281 282 282 282 282 283 284 285 285 286 286 287 288 289 290 290 290 291 291 291 290 289 288 288
270 270 270 270 270 270 270 270 270 271 271 272 273 274 274 277 279 280 281 281 282 283 283 283 284 286 287 287 287 286 287 288 289 290 290 291 292 293 292 291 290 289 289
270 270 271 271 271 271 270 270 270 271 272 272 273 274 275 277 279 281 281 281 281 282 283 284 285 286 287 288 288 287 288 289 290 291 291 291 292 292 292 292 291 290 290
271 271 271 272 273 272 271 270 271 272 272 272 273 274 276 276 278 279 280 281 281 282 283 284 285 287 288 288 289 289 289 289 290 290 291 292 292 292 291 291 291 291 291
272 272 272 273 273 272 271 271 271 273 273 273 274 275 275 276 277 278 280 281 281 282 284 284 285 287 288 289 289 289 289 290 291 291 291 292 292 292 291 291 292 292 293
272 272 273 274 274 273 273 272 272 272 274 275 276 276 276 278 279 279 279 280 281 283 284 285 286 287 288 290 290 290 290 291 291 291 292 292 291 291 291 292 291 292 292
272 273 273 274 273 273 273 272 273 274 275 276 276 276 277 279 281 280 280 280 281 282 283 285 286 288 289 291 292 291 291 292 292 291 292 292 291 291 292 292 293 293 293
272 273 274 274 273 274 274 273 273 273 275 276 277 277 279 280 280 281 281 280 281 283 284 285 287 289 290 291 292 292 292 293 293 292 293 292 292 292 291 292 294 294 294